Terminal Aerodrome Forecast
Issued by NWS

Home | Current Version | Previous Version | Text Only | Print | Product List | Glossary On
Versions: 1 2 3 4 5 6 7 8 9 10 11 12 13 14 15
000
FTUS46 KEKA 131100 RRA
TAFUKI
TAF
KUKI 131144Z 1312/1412 35005KT P6SM SKC
     FM132200 36009KT P6SM SKC
     FM140400 VRB03KT P6SM SKC=

USA.gov is the U.S. government's official web portal to all federal, state and local government web resources and services.